Weather History for KENV - May, 2014

Change the Weather History Date:

Wednesday, May 7, 2014

  Actual Average Record
Temperature  
Mean Temperature 46 °F -  
Max Temperature 51 °F 67 °F 91 °F (1934)
Min Temperature 42 °F 47 °F 27 °F (1981)
Degree Days  
Heating Degree Days 18    
Moisture  
Dew Point 34 °F    
Average Humidity 62    
Maximum Humidity 76    
Minimum Humidity 50    
Precipitation  
Precipitation 0.01 in - - ()
Sea Level Pressure  
Sea Level Pressure 29.78 in    
Wind  
Wind Speed 10 mph (NNW)    
Max Wind Speed 22 mph    
Max Gust Speed 30 mph    
Visibility 10 miles    
Events      
Averages and records for this station are not official NWS values.
T = Trace of Precipitation, MM = Missing Value Source: NWS Daily Summary

Daily Weather History Graph

Daily Weather History Graph

Search for Another Location

Airport or City:

Trip Planner

Search our weather history database for the weather conditions in past years. The results will help you decide how hot, cold, wet, or windy it might be!

Date:

Astronomy

May. 07, 2014 Rise Set
Actual Time 6:27 AM MDT 8:38 PM MDT
Civil Twilight 5:57 AM MDT 9:08 PM MDT
Nautical Twilight 5:19 AM MDT 9:46 PM MDT
Astronomical Twilight 4:39 AM MDT 10:27 PM MDT
Moon 1:45 PM MDT (5/7) 2:31 AM MDT (5/7)
Length of Visible Light 15h 11m
Length of Day
14h 11m
First Quarter, 56% of the Moon is Illuminated
May 7
First Quarter
May 14
Full
May 21
Last Quarter
May 28
New
Jun 5
First Quarter

Hourly Weather History & Observations

Time (MDT) Temp. Windchill Dew Point Humidity Pressure Visibility Wind Dir Wind Speed Gust Speed Precip Events Conditions
12:15 AM 48.2 °F - 35.6 °F 62% 29.71 in 10.0 mi West 5.8 mph - N/A   Overcast
12:35 AM 48.2 °F - 35.6 °F 62% 29.71 in 10.0 mi West 6.9 mph - N/A   Overcast
12:55 AM 48.2 °F - 33.8 °F 58% 29.72 in 10.0 mi North 10.4 mph - N/A   Overcast
1:15 AM 48.2 °F - 33.8 °F 58% 29.71 in 10.0 mi North 11.5 mph 17.3 mph N/A   Overcast
1:35 AM 48.2 °F - 33.8 °F 58% 29.71 in 10.0 mi North 13.8 mph 21.9 mph N/A   Overcast
1:55 AM 48.2 °F - 32.0 °F 54% 29.71 in 10.0 mi NNW 11.5 mph 18.4 mph N/A   Overcast
2:15 AM 48.2 °F - 32.0 °F 54% 29.71 in 10.0 mi NNW 10.4 mph - N/A   Overcast
2:35 AM 46.4 °F 41.9 °F 33.8 °F 62% 29.71 in 10.0 mi NNW 9.2 mph - N/A   Overcast
2:55 AM 46.4 °F 40.4 °F 32.0 °F 57% 29.69 in 10.0 mi NNW 13.8 mph - N/A   Overcast
3:15 AM 46.4 °F 40.7 °F 32.0 °F 57% 29.69 in 10.0 mi NW 12.7 mph 20.7 mph N/A   Overcast
3:35 AM 46.4 °F 41.9 °F 32.0 °F 57% 29.70 in 10.0 mi WNW 9.2 mph - N/A   Overcast
3:55 AM 46.4 °F 41.9 °F 32.0 °F 57% 29.70 in 10.0 mi NW 9.2 mph - N/A   Overcast
4:15 AM 46.4 °F 39.8 °F 32.0 °F 57% 29.70 in 10.0 mi NW 16.1 mph 20.7 mph N/A   Overcast
4:35 AM 46.4 °F 40.7 °F 32.0 °F 57% 29.70 in 10.0 mi NW 12.7 mph 23.0 mph N/A   Overcast
4:55 AM 44.6 °F 37.8 °F 33.8 °F 66% 29.71 in 10.0 mi NW 15.0 mph 20.7 mph N/A   Overcast
5:15 AM 44.6 °F 38.8 °F 33.8 °F 66% 29.71 in 10.0 mi NW 11.5 mph 21.9 mph N/A   Overcast
5:35 AM 44.6 °F 36.1 °F 32.0 °F 61% 29.70 in 10.0 mi NW 21.9 mph 29.9 mph N/A   Overcast
5:55 AM 44.6 °F 40.2 °F 33.8 °F 66% 29.71 in 10.0 mi East 8.1 mph - N/A   Overcast
6:15 AM 44.6 °F 39.7 °F 33.8 °F 66% 29.71 in 10.0 mi NNW 9.2 mph - N/A   Overcast
6:35 AM 44.6 °F 38.8 °F 32.0 °F 61% 29.71 in 10.0 mi WNW 11.5 mph - N/A   Overcast
6:55 AM 44.6 °F 37.4 °F 32.0 °F 61% 29.71 in 10.0 mi WNW 16.1 mph 20.7 mph N/A   Overcast
7:15 AM 44.6 °F 36.9 °F 32.0 °F 61% 29.70 in 10.0 mi NW 18.4 mph 24.2 mph N/A   Mostly Cloudy
7:35 AM 44.6 °F 36.4 °F 30.2 °F 57% 29.70 in 10.0 mi NW 20.7 mph 27.6 mph N/A   Partly Cloudy
7:55 AM 44.6 °F 37.2 °F 32.0 °F 61% 29.71 in 10.0 mi NNW 17.3 mph 21.9 mph N/A   Mostly Cloudy
8:15 AM 44.6 °F 38.4 °F 32.0 °F 61% 29.71 in 10.0 mi NW 12.7 mph 18.4 mph N/A   Overcast
8:35 AM 44.6 °F 36.6 °F 32.0 °F 61% 29.72 in 10.0 mi NW 19.6 mph 23.0 mph N/A   Overcast
8:55 AM 44.6 °F 37.4 °F 32.0 °F 61% 29.73 in 10.0 mi NW 16.1 mph - N/A   Overcast
9:15 AM 46.4 °F 40.7 °F 32.0 °F 57% 29.73 in 10.0 mi NW 12.7 mph 21.9 mph N/A   Overcast
9:35 AM 46.4 °F 40.7 °F 32.0 °F 57% 29.74 in 10.0 mi NNW 12.7 mph - N/A   Overcast
9:55 AM 46.4 °F 39.5 °F 30.2 °F 53% 29.75 in 10.0 mi NW 17.3 mph 21.9 mph N/A   Overcast
10:15 AM 44.6 °F 37.8 °F 30.2 °F 57% 29.75 in 10.0 mi NW 15.0 mph 21.9 mph N/A   Overcast
10:35 AM 44.6 °F 37.4 °F 30.2 °F 57% 29.76 in 10.0 mi NNW 16.1 mph 26.5 mph N/A   Overcast
11:15 AM 44.6 °F 38.4 °F 33.8 °F 66% 29.77 in 10.0 mi North 12.7 mph 20.7 mph N/A   Overcast
11:55 AM 44.6 °F 39.7 °F 33.8 °F 66% 29.79 in 10.0 mi North 9.2 mph - N/A   Overcast
12:35 PM 42.8 °F 39.3 °F 35.6 °F 76% 29.80 in 10.0 mi NE 5.8 mph - N/A   Overcast
12:55 PM 44.6 °F 40.2 °F 35.6 °F 71% 29.80 in 10.0 mi East 8.1 mph - N/A   Overcast
1:15 PM 44.6 °F 40.7 °F 35.6 °F 71% 29.80 in 10.0 mi East 6.9 mph - N/A   Overcast
1:35 PM 44.6 °F 40.7 °F 35.6 °F 71% 29.80 in 10.0 mi East 6.9 mph - N/A   Overcast
1:55 PM 44.6 °F 39.7 °F 35.6 °F 71% 29.80 in 10.0 mi East 9.2 mph - N/A   Mostly Cloudy
2:15 PM 46.4 °F 42.4 °F 35.6 °F 66% 29.80 in 10.0 mi East 8.1 mph - N/A   Mostly Cloudy
2:35 PM 46.4 °F 43.5 °F 37.4 °F 71% 29.80 in 10.0 mi ESE 5.8 mph - N/A   Overcast
2:55 PM 50.0 °F - 37.4 °F 62% 29.80 in 10.0 mi SE 6.9 mph - N/A   Mostly Cloudy
3:15 PM 50.0 °F - 37.4 °F 62% 29.80 in 10.0 mi South 9.2 mph - N/A   Mostly Cloudy
3:35 PM 48.2 °F - 35.6 °F 62% 29.80 in 10.0 mi SSW 8.1 mph - N/A   Overcast
3:55 PM 51.8 °F - 37.4 °F 58% 29.80 in 10.0 mi South 9.2 mph - N/A   Overcast
4:15 PM 48.2 °F - 37.4 °F 66% 29.80 in 10.0 mi SSE 10.4 mph - N/A   Overcast
4:35 PM 48.2 °F - 35.6 °F 62% 29.80 in 10.0 mi SW 3.5 mph - N/A   Mostly Cloudy
4:55 PM 50.0 °F - 37.4 °F 62% 29.80 in 10.0 mi SSW 4.6 mph - N/A   Mostly Cloudy
5:15 PM 51.8 °F - 37.4 °F 58% 29.80 in 10.0 mi South 8.1 mph - N/A   Overcast
5:35 PM 51.8 °F - 37.4 °F 58% 29.80 in 10.0 mi WSW 9.2 mph - N/A   Mostly Cloudy
5:55 PM 51.8 °F - 35.6 °F 54% 29.80 in 10.0 mi SW 5.8 mph - N/A   Overcast
6:15 PM 51.8 °F - 35.6 °F 54% 29.83 in 10.0 mi NW 10.4 mph - N/A   Mostly Cloudy
6:35 PM 46.4 °F 41.9 °F 35.6 °F 66% 29.84 in 10.0 mi NNE 9.2 mph - 0.01 in   Overcast
6:55 PM 48.2 °F - 37.4 °F 66% 29.83 in 10.0 mi NE 10.4 mph - 0.01 in   Overcast
7:15 PM 48.2 °F - 37.4 °F 66% 29.83 in 10.0 mi ENE 9.2 mph - N/A   Mostly Cloudy
7:35 PM 48.2 °F - 37.4 °F 66% 29.83 in 10.0 mi East 9.2 mph - N/A   Mostly Cloudy
7:55 PM 48.2 °F - 37.4 °F 66% 29.84 in 10.0 mi ESE 5.8 mph - N/A   Partly Cloudy
8:15 PM 48.2 °F - 35.6 °F 62% 29.85 in 10.0 mi SSE 6.9 mph - N/A   Clear
8:35 PM 48.2 °F - 35.6 °F 62% 29.85 in 10.0 mi West 4.6 mph - N/A   Mostly Cloudy
8:55 PM 51.8 °F - 33.8 °F 50% 29.86 in 10.0 mi NNW 9.2 mph 19.6 mph N/A   Overcast
9:15 PM 50.0 °F - 33.8 °F 54% 29.87 in 10.0 mi North 8.1 mph 16.1 mph N/A   Overcast
9:35 PM 48.2 °F - 33.8 °F 58% 29.88 in 10.0 mi Calm Calm - N/A   Overcast
9:55 PM 48.2 °F - 33.8 °F 58% 29.89 in 10.0 mi Calm Calm - N/A   Scattered Clouds
10:15 PM 46.4 °F 45.2 °F 35.6 °F 66% 29.89 in 10.0 mi SE 3.5 mph - N/A   Scattered Clouds
10:35 PM 46.4 °F 44.3 °F 37.4 °F 71% 29.90 in 10.0 mi SSW 4.6 mph - N/A   Scattered Clouds
10:55 PM 46.4 °F 45.2 °F 33.8 °F 62% 29.90 in 10.0 mi SW 3.5 mph - N/A   Scattered Clouds
11:15 PM 46.4 °F 43.5 °F 35.6 °F 66% 29.90 in 10.0 mi NW 5.8 mph - N/A   Partly Cloudy
11:35 PM 44.6 °F 41.4 °F 35.6 °F 71% 29.90 in 10.0 mi NW 5.8 mph - N/A   Clear
11:55 PM 44.6 °F 40.7 °F 35.6 °F 71% 29.90 in 10.0 mi NW 6.9 mph - N/A   Clear